Погода Сумы

Погода Сумы : погода сейчас, прогноз погоды и архив. Всё, что Вы хотите узнать о погоде Сумы!

Хотите узнать прогноз погоды Сумы? Тогда Вам сюда: Погода Сумы

Поиск расширенной информации на нашем сайте:

Полезная информация: Подборка материалов по истории и теории экономики http://www.econbook.ru/

Другие новости

Новости СМИ2

Главная страница сайта

Новости сайта

02.10.2013

Напоминаем, что на нашем новом сайте вы можете получить высокодетализированные прогнозы погоды по пунктам России, СНГ и мира (включающие важные для авиации метеовеличины, такие как направление и скорость ветра, видимость, явления погоды, количество и форма облачности, нижняя и верхняя граница облачности), а также ознакомиться с разнообразными материалами по авиационной метеорологии и подборкой полезных ссылок на эту тему.

Сайт Метеоцентр.Азия посвящён разработке технологий оптимизации авиаметеорологического обслуживания, включая проектирование и перспективное создание нескольких автоматизированных авиаметеорологических систем:
- система выпуска высокодетальных прогностических карт явлений погоды для нижнего воздушного пространства по России и ближнему зарубежью;
- система верификации прогнозов TAF (выпускаемых синоптиками официальных АМСГ РФ и ближнего зарубежья) и AUTOTAF (выпускаемых сайтом Метеоцентр.Азия) - выявление ошибок, онлайн-сопоставление с фактической погодой METAR, автоматическое внесение коррективов в прогнозы при резком отклонении фактической погоды от прогноза, подсчёт оправдываемости прогнозов по элементам и в целом;
- система обработки, анализа и отображения авиаметеорологической информации для применения провайдерами метеорологической информации.

Рекомендуем: Втб финансирует вэб лизинг veb-leasing.ru.

Погода Сумы - сегодня

Время (UTC), дата Ветер
(°,м/с) 
Видим.   Явления Облачность Т
(°С)
Тd
(°С)
f(%) Тe
(°С)
Pmin
(гПа)
dP
(гПа)
Po
(мм)
O2
(г/м3)
Тmin Tmax R s Состояние
почвы
18 19.01.17 240 (ЮЗ) 10 км  {снег}  8/8 600 м 
[Sc]
-10.5 -11.3 94 -12  1035  -1.7  758  319    -9.5  0.2     
21 19.01.17 260 (З) 10 км    10/10 480 м 
[Sc]
-9.6 -10.4 94 -13  1033.1  -1.8  757  317           
00 20.01.17 260 (З) 10 км    10/10 240 м 
[St]
-8.1 -8.7 95 -12  1030.8  -2.1  755  314           
03 20.01.17 240 (ЮЗ) 10 км    10/10 240 м 
[St]
-7.4 -8.3 93 -12  1028.1  -2.6  753  313           
06 20.01.17 260 (З) 2000 м  дымка  10/10 180 м 
[St]
-8 -8.6 95 -12  1026.5  -1.6  752  313  -12.1      21  равномерный
сухой снег
100% 
09 20.01.17 270 (З) 2000 м  в посл. час переохл. осадки (гололёд){морось}  10/10 180 м 
[St]
-6.4 -7.2 94 -10  1025.8  -0.5  752  311           
12 20.01.17 280 (З) 10 км  {снег, морось}  10/10 270 м 
[St]
-4.6 -6.2 89 -9  1024.1  -1.5  751  308      0.0     
15 20.01.17 280 (З) 10 км    10/10 270 м 
[St]
-4.4 -5.7 91 -8  1024.2  0.1  751  308           
18 20.01.17 280 (З) 10 км    10/10 600 м 
[Sc]
-4.1 -5.3 91 -7  1023.9  -0.3  750  308    -4.1  0.0     
21 20.01.17 270 (З) 10 км    10/6 630 м средняя 
[Sc|Ac und]
-3.7 -4.8 92 -7  1023.1  -0.7  750  307           
00 21.01.17 260 (З) 10 км    10/10 570 м 
[Sc]
-3.6 -4.7 92 -7  1021.9  -1.2  749  306           
03 21.01.17 260 (З) 2000 м  слаб. снег  10/9 210 м средняя 
[Frnb|As op]
-3.4 -4.2 94 -6  1020.3  -1.5  748  306           
06 21.01.17 260 (З) 2000 м  слаб. снег  10/9 150 м средняя 
[Frnb|As op]
-3.2 -3.9 95 -6  1019.4  -0.9  747  305  -4.1    0.4  21  равномерный
сухой снег
100% 
09 21.01.17 280 (З) 2000 м  слаб. ливневой снег  10/8 120 м кучево-дожд., средняя 
[Cb calv|Ac und]
-1.9 -2.5 96 -6  1018.7  -0.6  747  303           
12 21.01.17 290 (З) 10 км  {ливн. осадки, снег}  10/10 210 м 
[St]
-0.3 -1.2 94 -5  1017.3  -1.2  746  301      0.6     
15 21.01.17 300 (СЗ) 10 км  в посл. час ливневой снег  10/6 300 м кучево-дожд. 
[Cb calv]
+0.5 -0.1 96 -3  1017.8  0.6  746  300           
18 21.01.17 310 (СЗ) 10 км  в посл. час ливневой снег  8/4 300 м кучево-дожд., средняя 
[Cb calv|Ac trans]
-0.2 -1.1 94 -3  1019.9  748  302    +0.5     
21 21.01.17 320 (СЗ) 10 км    ясно 
-2.1 -6.7 71 -5  1023.7  3.5  750  305           
00 22.01.17 340 (С) 10 км    ясно 
-5.3 -9.4 73 -7  1027.2  3.1  753  310           
03 22.01.17 290 (З) 10 км    ясно 
-9.6 -11.2 88 -9  1029.6  754  316           
06 22.01.17 260 (З) 10 км    3/0 верхняя 
[Ci fib]
-9 -10.1 92 -12  1030.5  0.9  755  316  -9.7      21  равномерный
сухой снег
100% 
09 22.01.17 280 (З) 1000 м  в посл. час туман  9/5 100 м средняя 
[St|Ac trans]
-7.4 -8 95 -10  1031.4  1.1  756  314           
12 22.01.17 270 (З) 10 км  {туман}  10/6 180 м средняя 
[St|Ac und]
-5 -6.7 88 -7  1029.7  -1.5  755  310           
15 22.01.17 270 (З) 10 км    10/10 210 м 
[St]
-4.3 -5.9 89 -8  1028.8  -0.8  754  309           
18 22.01.17 270 (З) 10 км  слаб. ливневой снег  10/6 420 м кучево-дожд., средняя 
[Cb calv|Ac und]
-2.5 -3.8 91 -6  1027.1  -1.5  753  307    -2.5  0.0     
Время (UTC), дата Ветер
(°,м/с) 
Видим.   Явления Облачность Т
(°С)
Тd
(°С)
f(%) Тe
(°С)
Pmin
(гПа)
dP
(гПа)
Po
(мм)
O2
(г/м3)
Тmin Tmax R s Состояние
почвы

Для получения пояснительной информации подведите курсор к названию столбца.

ПОГОДА Сумы - архив

Всё, что Вы хотите узнать о погоде Сумы - удобно и подробно!

Выберите нужную дату (начиная с 1 января 2015* года) и нажмите кнопку "Найти".
Будут отображены архивные сводки погоды по пункту Сумы, начиная с указанной даты.


Отображать данные в формате CSV (для использования в таблицах Excel)


Внимание! Наш архив погоды предназначен исключительно для личного некоммерческого использования в познавательных целях. Если Вам необходимы официальные справки о состоянии погоды (для производственных, юридических, коммерческих и т.п. целей), обращайтесь в органы Росгидромета.

*Примечание: данная дата относится к архиву по метеостанциям СССР (Россия, СНГ, Балтия).
Архив по метеостанциям Зарубежной Европы и Азии (кроме Китая) хранится 10 дней, по другим регионам земного шара (Китай, Африка, Америка, Австралия, Океания) - 1 день.

Сумы - район местоположения метеостанции


Название, широта, долгота, высота метеостанции:
Сумы 50.9°ш. 34.7°д. 181 м над ур. моря [Украина]

Дополнительная информация

В oтличие oт бoльшинства пoгoдных сайтoв мы публикуем пoдрoбную метеoинфoрмацию в детальнoм прoфессиoнальнoм фoрмате.

Характеристики температуры и влажнoсти вoздуха измеряются на высoте 2 м в тени вдали oт зданий и деревьев.
Скoрoсть ветра измеряется на высoте 10 м (на урoвне рoста челoвека скoрoсть ветра ниже в 1.5-2 раза). Если метеoстанция нахoдится в гoрoде или в лесу, тo скoрoсть ветра занижена на 2-4 м/с пo сравнению с oткрытым местoм. Скoрoсть ветра над акватoриями крупных рек и oзёр, а также на вершинах хoлмoв на 2-5 м/с выше, чем в oбычных услoвиях.
Атмoсфернoе давление в разных тoчках местнoсти мoжет значительнo oтличаться oт давления на метеoстанции, в зависимoсти oт услoвий рельефа (при пoдъёме на 10 м давление пoнижается примернo на 1 мм рт.ст.).